TimeMDT,TemperatureF,Dew PointF,Humidity,Sea Level PressureIn,VisibilityMPH,Wind Direction,Wind SpeedMPH,Gust SpeedMPH,PrecipitationIn,Events,Conditions,WindDirDegrees,DateUTC
12:53 AM,59.0,33.1,38,29.90,10.0,South,11.5,-,N/A,,Clear,190,2013-08-03 06:53:00
1:53 AM,62.1,30.9,31,29.90,10.0,South,12.7,-,N/A,,Clear,190,2013-08-03 07:53:00
2:53 AM,61.0,30.9,32,29.90,10.0,South,11.5,-,N/A,,Clear,190,2013-08-03 08:53:00
3:53 AM,61.0,30.0,31,29.91,10.0,South,11.5,-,N/A,,Clear,190,2013-08-03 09:53:00
4:53 AM,61.0,28.9,30,29.92,10.0,SSW,10.4,-,N/A,,Clear,210,2013-08-03 10:53:00
5:53 AM,57.0,30.0,36,29.94,10.0,South,8.1,-,N/A,,Clear,180,2013-08-03 11:53:00
6:53 AM,57.9,30.9,36,29.96,10.0,SSW,10.4,-,N/A,,Clear,200,2013-08-03 12:53:00
7:53 AM,64.9,30.9,28,29.96,10.0,SW,9.2,-,N/A,,Clear,220,2013-08-03 13:53:00
8:53 AM,68.0,34.0,28,29.99,10.0,SW,10.4,-,N/A,,Clear,220,2013-08-03 14:53:00
9:53 AM,72.0,36.0,27,29.99,10.0,West,8.1,-,N/A,,Clear,280,2013-08-03 15:53:00
10:53 AM,75.9,37.0,24,29.97,10.0,NW,9.2,-,N/A,,Clear,310,2013-08-03 16:53:00
11:53 AM,75.9,41.0,29,29.97,10.0,WNW,10.4,-,N/A,,Clear,300,2013-08-03 17:53:00
12:53 PM,78.1,39.0,25,29.97,10.0,WNW,6.9,-,N/A,,Clear,300,2013-08-03 18:53:00
1:53 PM,81.0,34.0,18,29.94,10.0,Variable,5.8,-,N/A,,Clear,0,2013-08-03 19:53:00
2:53 PM,84.9,35.1,17,29.93,10.0,NNW,6.9,-,N/A,,Clear,330,2013-08-03 20:53:00
3:53 PM,84.9,33.1,16,29.90,10.0,NNW,8.1,-,N/A,,Clear,330,2013-08-03 21:53:00
4:53 PM,86.0,37.9,18,29.88,10.0,NW,8.1,-,N/A,,Clear,320,2013-08-03 22:53:00
5:53 PM,86.0,35.1,16,29.87,10.0,NW,6.9,-,N/A,,Clear,320,2013-08-03 23:53:00
6:53 PM,82.9,36.0,19,29.87,10.0,WNW,6.9,-,N/A,,Clear,290,2013-08-04 00:53:00
7:53 PM,82.9,30.0,15,29.85,10.0,West,5.8,-,N/A,,Clear,270,2013-08-04 01:53:00
8:53 PM,73.0,34.0,24,29.86,10.0,SW,4.6,-,N/A,,Clear,220,2013-08-04 02:53:00
9:53 PM,64.0,35.1,34,29.87,10.0,SW,3.5,-,N/A,,Clear,220,2013-08-04 03:53:00
10:53 PM,64.9,30.0,27,29.88,10.0,South,8.1,-,N/A,,Clear,180,2013-08-04 04:53:00
11:53 PM,70.0,28.9,22,29.88,10.0,SSW,10.4,-,N/A,,Clear,210,2013-08-04 05:53:00